Erzurum, Turkey

5:00 AM EEST on July 28, 2016 (GMT +0300)
Erzurum

Weather History for LTCE - December, 2012

Change the Weather History Date:

Tuesday, December 25, 2012

  Actual Average Record
Temperature  
Mean Temperature 13 °F -  
Max Temperature 28 °F 26 °F 37 °F (2015)
Min Temperature -2 °F 12 °F -18 °F (2002)
Degree Days  
Heating Degree Days 52    
Moisture  
Dew Point 15 °F    
Average Humidity 86    
Maximum Humidity 100    
Minimum Humidity 70    
Precipitation  
Precipitation 0.00 in 0.03 in - ()
Sea Level Pressure  
Sea Level Pressure 30.17 in    
Wind  
Wind Speed 5 mph ()    
Max Wind Speed 13 mph    
Max Gust Speed -    
Visibility 6.8 miles    
Events      
Averages and records for this station are not official NWS values.
T = Trace of Precipitation, MM = Missing Value Source: Averaged Metar Reports

Daily Weather History Graph

Daily Weather History Graph

Search for Another Location

Airport or City:

Trip Planner

Search our weather history database for the weather conditions in past years. The results will help you decide how hot, cold, wet, or windy it might be!

Date:

Astronomy

Dec. 25, 2012 Rise Set
Actual Time 6:35 AM EET 3:55 PM EET
Civil Twilight 6:04 AM EET 4:26 PM EET
Nautical Twilight 5:30 AM EET 5:00 PM EET
Astronomical Twilight 4:57 AM EET 5:33 PM EET
Moon 1:48 PM EET (12/25) 3:48 AM EET (12/25)
Length of Visible Light 10h 21m
Length of Day
9h 20m
Waxing Gibbous, 92% of the Moon is Illuminated
Dec 25
Waxing Gibbous
Dec 28
Full
Jan 5
Last Quarter
Jan 11
New
Jan 19
First Quarter

Hourly Weather History & Observations

Time (EET) Temp. Windchill Dew Point Humidity Pressure Visibility Wind Dir Wind Speed Gust Speed Precip Events Conditions
12:20 AM 23.0 °F 17.0 °F 19.4 °F 86% 30.12 in 6.2 mi West 4.6 mph - N/A   Scattered Clouds
12:50 AM 23.0 °F 15.8 °F 19.4 °F 86% 30.12 in 6.2 mi WSW 5.8 mph - N/A   Scattered Clouds
1:20 AM 21.2 °F 16.4 °F 19.4 °F 93% 30.12 in 6.2 mi WNW 3.5 mph - N/A   Scattered Clouds
1:50 AM 21.2 °F 12.6 °F 17.6 °F 86% 30.12 in 6.2 mi West 6.9 mph - N/A   Scattered Clouds
2:00 AM 20 °F - 19 °F 92%  in 12 mi West 6.9 mph - -   Partly Cloudy
2:20 AM 21.2 °F 13.6 °F 19.4 °F 93% 30.12 in 6.2 mi West 5.8 mph - N/A   Scattered Clouds
2:50 AM 21.2 °F 14.9 °F 17.6 °F 86% 30.12 in 6.2 mi NW 4.6 mph - N/A   Scattered Clouds
3:20 AM 21.2 °F 13.6 °F 17.6 °F 86% 30.12 in 6.2 mi West 5.8 mph - N/A   Scattered Clouds
3:50 AM 19.4 °F 14.3 °F 14.0 °F 80% 30.12 in 6.2 mi West 3.5 mph - N/A   Scattered Clouds
4:20 AM 21.2 °F - 15.8 °F 80% 30.12 in 6.2 mi Variable 2.3 mph - N/A   Scattered Clouds
4:50 AM 21.2 °F 16.4 °F 17.6 °F 86% 30.12 in 6.2 mi North 3.5 mph - N/A   Scattered Clouds
5:20 AM 23.0 °F - 17.6 °F 80% 30.12 in 6.2 mi Variable 2.3 mph - N/A   Scattered Clouds
5:50 AM 24.8 °F 16.9 °F 19.4 °F 80% 30.15 in 6.2 mi NW 6.9 mph - N/A   Scattered Clouds
6:20 AM 24.8 °F 16.9 °F 19.4 °F 80% 30.15 in 6.2 mi NW 6.9 mph - N/A   Scattered Clouds
6:50 AM 23.0 °F 14.7 °F 21.2 °F 93% 30.15 in 6.2 mi West 6.9 mph - N/A   Scattered Clouds
7:20 AM 24.8 °F 16.1 °F 19.4 °F 80% 30.15 in 6.2 mi WSW 8.1 mph - N/A   Scattered Clouds
7:50 AM 23.0 °F 13.9 °F 19.4 °F 86% 30.15 in 6.2 mi WNW 8.1 mph - N/A   Scattered Clouds
8:00 AM 23 °F - 21 °F 87%  in 12 mi WNW 8.1 mph - -   Partly Cloudy
8:20 AM 23.0 °F 12.4 °F 17.6 °F 80% 30.15 in 6.2 mi WNW 10.4 mph - N/A   Scattered Clouds
8:50 AM 23.0 °F 13.9 °F 17.6 °F 80% 30.18 in 6.2 mi West 8.1 mph - N/A   Scattered Clouds
9:20 AM 24.8 °F 13.4 °F 19.4 °F 80% 30.18 in 6.2 mi WNW 12.7 mph - N/A   Scattered Clouds
9:50 AM 26.6 °F 16.8 °F 21.2 °F 80% 30.18 in 6.2 mi West 10.4 mph - N/A   Scattered Clouds
10:20 AM 26.6 °F 16.8 °F 21.2 °F 80% 30.18 in 6.2 mi West 10.4 mph - N/A   Partly Cloudy
10:50 AM 26.6 °F 16.8 °F 21.2 °F 80% 30.18 in 6.2 mi West 10.4 mph - N/A   Partly Cloudy
11:20 AM 28.4 °F 18.0 °F 21.2 °F 74% 30.18 in 6.2 mi West 12.7 mph - N/A   Partly Cloudy
11:50 AM 28.4 °F 20.4 °F 23.0 °F 80% 30.18 in 6.2 mi West 8.1 mph - N/A   Partly Cloudy
12:20 PM 28.4 °F 19.1 °F 23.0 °F 80% 30.15 in 6.2 mi West 10.4 mph - N/A   Partly Cloudy
12:50 PM 28.4 °F 19.7 °F 23.0 °F 80% 30.15 in 6.2 mi West 9.2 mph - N/A   Partly Cloudy
1:20 PM 28.4 °F 20.4 °F 21.2 °F 74% 30.15 in 6.2 mi West 8.1 mph - N/A   Partly Cloudy
1:50 PM 28.4 °F 18.5 °F 23.0 °F 80% 30.15 in 6.2 mi West 11.5 mph - N/A   Partly Cloudy
2:00 PM 28 °F - 22 °F 70%  in 12 mi West 11.5 mph - -   Scattered Clouds
2:20 PM 28.4 °F 18.0 °F 21.2 °F 74% 30.15 in 6.2 mi West 12.7 mph - N/A   Partly Cloudy
2:50 PM 26.6 °F 20.0 °F 21.2 °F 80% 30.15 in 6.2 mi West 5.8 mph - N/A   Partly Cloudy
3:20 PM 24.8 °F 19.1 °F 21.2 °F 86% 30.15 in 6.2 mi West 4.6 mph - N/A   Partly Cloudy
3:50 PM 19.4 °F 11.5 °F 15.8 °F 86% 30.18 in 6.2 mi West 5.8 mph - N/A   Partly Cloudy
4:20 PM 17.6 °F 9.3 °F 15.8 °F 93% 30.18 in 6.2 mi West 5.8 mph - N/A   Partly Cloudy
4:50 PM 14.0 °F 5.1 °F 10.4 °F 86% 30.18 in 6.2 mi West 5.8 mph - N/A   Partly Cloudy
5:20 PM 10.4 °F - 8.6 °F 92% 30.18 in - Variable 2.3 mph - N/A   Clear
5:50 PM 14.0 °F - 12.2 °F 93% 30.18 in - Variable 2.3 mph - N/A   Clear
6:20 PM 10.4 °F 4.0 °F 8.6 °F 92% 30.21 in - East 3.5 mph - N/A   Clear
6:50 PM 6.8 °F - 5.0 °F 92% 30.21 in - ESE 2.3 mph - N/A   Clear
7:20 PM 8.6 °F - 8.6 °F 100% 30.21 in - Variable 1.2 mph - N/A   Clear
7:50 PM 8.6 °F 2.0 °F 6.8 °F 92% 30.21 in - ENE 3.5 mph - N/A   Clear
8:00 PM 9 °F - 9 °F 97%  in 12 mi ENE 3.5 mph - -  
8:20 PM 5.0 °F - 3.2 °F 92% 30.21 in - Variable 1.2 mph - N/A   Clear
8:50 PM 5.0 °F - 5.0 °F 100% 30.21 in - Variable 2.3 mph - N/A   Clear
9:20 PM 3.2 °F - 1.4 °F 92% 30.21 in - Variable 1.2 mph - N/A   Clear
9:50 PM 5.0 °F - 3.2 °F 92% 30.24 in - Calm Calm - N/A   Clear
10:20 PM 3.2 °F - 1.4 °F 92% 30.24 in - Calm Calm - N/A   Clear
10:50 PM -2.2 °F - -4.0 °F 92% 30.24 in - North 2.3 mph - N/A   Clear
11:20 PM -0.4 °F - -2.2 °F 92% 30.24 in - Calm Calm - N/A   Clear
11:50 PM 1.4 °F - -0.4 °F 92% 30.27 in - Variable 2.3 mph - N/A   Clear